When you browse on this site, cookies collect data to enhance your experience and personalize the content and advertising you see.
Visit our Privacy Policy to learn more. By continuing to use the site, you agree to this use of cookies and data.
EN

Hourly Weather Pimahovo

Today, 12 August, Wednesday

Time Temperature Precipitation Wind Pressure Humidity
00:00 +10°C° 0 mm 2 mps 750 mmHg 85%
01:00 +11°C° 0 mm 3 mps 750 mmHg 85%
02:00 +11°C° 0 mm 3 mps 750 mmHg 85%
03:00 +11°C° 0 mm 3 mps 750 mmHg 87%
04:00 +10°C° 0 mm 3 mps 750 mmHg 89%
05:00 +10°C° 0 mm 3 mps 750 mmHg 90%
06:00 +11°C° 0 mm 3 mps 750 mmHg 88%
07:00 +11°C° 0 mm 4 mps 750 mmHg 86%
08:00 +12°C° 0 mm 4 mps 750 mmHg 84%
09:00 +14°C° 0 mm 4 mps 750 mmHg 77%
10:00 +15°C° 0 mm 4 mps 750 mmHg 71%
11:00 +17°C° 0 mm 4 mps 750 mmHg 64%
12:00 +18°C° 0.1 mm 4 mps 750 mmHg 62%
13:00 +19°C° 0.1 mm 4 mps 750 mmHg 59%
14:00 +19°C° 0.1 mm 4 mps 750 mmHg 57%
15:00 +19°C° 0.1 mm 3 mps 750 mmHg 60%
16:00 +19°C° 0.1 mm 3 mps 750 mmHg 62%
17:00 +18°C° 0.1 mm 3 mps 750 mmHg 65%
18:00 +17°C° 0 mm 3 mps 750 mmHg 72%
19:00 +15°C° 0 mm 2 mps 750 mmHg 78%
20:00 +14°C° 0 mm 2 mps 750 mmHg 85%
21:00 +13°C° 0 mm 2 mps 750 mmHg 87%
22:00 +12°C° 0 mm 2 mps 750 mmHg 89%
23:00 +10°C° 0 mm 2 mps 750 mmHg 91%

Tomorrow, 13 August, Thursday

Time Temperature Precipitation Wind Pressure Humidity
00:00 +9°C° 0 mm 2 mps 750 mmHg 92%
01:00 +9°C° 0 mm 2 mps 750 mmHg 92%
02:00 +8°C° 0 mm 2 mps 750 mmHg 92%
03:00 +8°C° 0 mm 2 mps 750 mmHg 92%
04:00 +8°C° 0 mm 2 mps 750 mmHg 92%
05:00 +7°C° 0 mm 2 mps 750 mmHg 93%
06:00 +9°C° 0 mm 2 mps 750 mmHg 84%
07:00 +12°C° 0 mm 2 mps 750 mmHg 75%
08:00 +14°C° 0 mm 2 mps 750 mmHg 66%
09:00 +15°C° 0 mm 2 mps 750 mmHg 62%
10:00 +16°C° 0 mm 2 mps 750 mmHg 58%
11:00 +17°C° 0 mm 3 mps 749 mmHg 54%
12:00 +17°C° 0 mm 3 mps 749 mmHg 53%
13:00 +18°C° 0 mm 3 mps 749 mmHg 53%
14:00 +18°C° 0 mm 2 mps 749 mmHg 53%
15:00 +18°C° 0 mm 2 mps 749 mmHg 55%
16:00 +18°C° 0 mm 2 mps 749 mmHg 56%
17:00 +17°C° 0 mm 2 mps 749 mmHg 58%
18:00 +16°C° 0 mm 2 mps 749 mmHg 65%
19:00 +14°C° 0 mm 1 mps 749 mmHg 72%
20:00 +12°C° 0 mm 1 mps 749 mmHg 79%
21:00 +13°C° 0 mm 1 mps 749 mmHg 78%
22:00 +13°C° 0 mm 1 mps 749 mmHg 77%
23:00 +13°C° 0 mm 1 mps 749 mmHg 76%

Day after tomorrow, 14 August, Friday

Time Temperature Precipitation Wind Pressure Humidity
00:00 +13°C° 0 mm 1 mps 749 mmHg 77%
01:00 +12°C° 0 mm 1 mps 750 mmHg 79%
02:00 +11°C° 0 mm 0 mps 750 mmHg 80%
03:00 +11°C° 0 mm 0 mps 750 mmHg 81%
04:00 +11°C° 0 mm 0 mps 750 mmHg 82%
05:00 +10°C° 0 mm 0 mps 750 mmHg 83%
06:00 +13°C° 0 mm 1 mps 750 mmHg 79%
07:00 +14°C° 0 mm 1 mps 750 mmHg 75%
08:00 +15°C° 0 mm 1 mps 750 mmHg 71%
09:00 +16°C° 0 mm 1 mps 750 mmHg 65%
10:00 +19°C° 0 mm 1 mps 750 mmHg 60%
11:00 +20°C° 0 mm 1 mps 750 mmHg 54%
12:00 +20°C° 0 mm 1 mps 750 mmHg 53%
13:00 +21°C° 0 mm 1 mps 750 mmHg 52%
14:00 +21°C° 0 mm 1 mps 750 mmHg 52%
15:00 +21°C° 0 mm 1 mps 750 mmHg 52%
16:00 +21°C° 0 mm 1 mps 749 mmHg 53%
17:00 +21°C° 0 mm 1 mps 749 mmHg 54%
18:00 +17°C° 0 mm 0 mps 749 mmHg 61%
19:00 +14°C° 0 mm 0 mps 750 mmHg 68%
20:00 +12°C° 0 mm 0 mps 750 mmHg 76%
21:00 +12°C° 0 mm 0 mps 750 mmHg 77%
22:00 +13°C° 0 mm 1 mps 750 mmHg 79%
23:00 +12°C° 0 mm 1 mps 750 mmHg 80%

15 August, Saturday

Time Temperature Precipitation Wind Pressure Humidity
00:00 +12°C° 0 mm 1 mps 750 mmHg 81%
01:00 +12°C° 0 mm 1 mps 750 mmHg 82%
02:00 +12°C° 0 mm 1 mps 750 mmHg 82%
03:00 +12°C° 0 mm 1 mps 750 mmHg 83%
04:00 +12°C° 0 mm 1 mps 750 mmHg 84%
05:00 +12°C° 0 mm 1 mps 750 mmHg 85%
06:00 +13°C° 0 mm 1 mps 750 mmHg 80%
07:00 +15°C° 0 mm 1 mps 750 mmHg 76%
08:00 +18°C° 0 mm 1 mps 750 mmHg 71%
09:00 +19°C° 0 mm 1 mps 750 mmHg 71%
10:00 +20°C° 0 mm 1 mps 751 mmHg 70%
11:00 +20°C° 0 mm 1 mps 751 mmHg 69%
12:00 +22°C° 0.1 mm 1 mps 750 mmHg 65%
13:00 +23°C° 0.1 mm 1 mps 750 mmHg 62%
14:00 +24°C° 0.1 mm 1 mps 750 mmHg 58%
15:00 +23°C° 0.6 mm 1 mps 750 mmHg 66%
16:00 +22°C° 0.6 mm 1 mps 750 mmHg 74%
17:00 +21°C° 0.6 mm 1 mps 750 mmHg 81%
18:00 +20°C° 0.1 mm 1 mps 750 mmHg 85%
19:00 +18°C° 0.1 mm 1 mps 750 mmHg 88%
20:00 +15°C° 0.1 mm 0 mps 749 mmHg 92%
21:00 +14°C° 0 mm 0 mps 750 mmHg 92%
22:00 +14°C° 0 mm 0 mps 750 mmHg 93%
23:00 +13°C° 0 mm 0 mps 750 mmHg 93%

16 August, Sunday

Time Temperature Precipitation Wind Pressure Humidity
00:00 +13°C° 0 mm 0 mps 750 mmHg 94%
01:00 +13°C° 0 mm 0 mps 750 mmHg 94%
02:00 +12°C° 0 mm 0 mps 750 mmHg 94%
03:00 +12°C° 0 mm 0 mps 750 mmHg 94%
04:00 +12°C° 0 mm 0 mps 750 mmHg 95%
05:00 +12°C° 0 mm 0 mps 750 mmHg 95%
06:00 +14°C° 0 mm 0 mps 750 mmHg 92%
07:00 +15°C° 0 mm 0 mps 750 mmHg 88%
08:00 +19°C° 0 mm 1 mps 750 mmHg 85%
09:00 +21°C° 0 mm 1 mps 750 mmHg 76%
10:00 +22°C° 0 mm 1 mps 751 mmHg 67%
11:00 +24°C° 0 mm 1 mps 751 mmHg 59%
12:00 +25°C° 0 mm 1 mps 750 mmHg 55%
13:00 +26°C° 0 mm 1 mps 750 mmHg 51%
14:00 +26°C° 0 mm 1 mps 750 mmHg 48%
15:00 +26°C° 0 mm 1 mps 750 mmHg 51%
16:00 +25°C° 0 mm 1 mps 750 mmHg 54%
17:00 +25°C° 0 mm 1 mps 750 mmHg 57%
18:00 +23°C° 0 mm 1 mps 750 mmHg 65%
19:00 +21°C° 0 mm 1 mps 749 mmHg 73%
20:00 +19°C° 0 mm 1 mps 749 mmHg 81%
21:00 +18°C° 0 mm 1 mps 750 mmHg 83%
22:00 +18°C° 0 mm 1 mps 750 mmHg 86%
23:00 +16°C° 0 mm 1 mps 750 mmHg 88%

17 August, Monday

Time Temperature Precipitation Wind Pressure Humidity
00:00 +16°C° 0 mm 1 mps 750 mmHg 90%
01:00 +16°C° 0 mm 1 mps 750 mmHg 92%
02:00 +15°C° 0 mm 1 mps 750 mmHg 94%
03:00 +15°C° 0 mm 1 mps 750 mmHg 94%
04:00 +15°C° 0 mm 1 mps 750 mmHg 95%
05:00 +14°C° 0 mm 1 mps 750 mmHg 95%
06:00 +18°C° 0 mm 1 mps 750 mmHg 88%
07:00 +20°C° 0 mm 1 mps 750 mmHg 80%
08:00 +22°C° 0 mm 1 mps 750 mmHg 72%
09:00 +23°C° 0 mm 1 mps 750 mmHg 67%
10:00 +25°C° 0 mm 2 mps 750 mmHg 62%
11:00 +26°C° 0 mm 2 mps 750 mmHg 57%
12:00 +27°C° 0 mm 2 mps 750 mmHg 54%
13:00 +27°C° 0 mm 1 mps 749 mmHg 51%
14:00 +28°C° 0 mm 1 mps 749 mmHg 48%
15:00 +28°C° 0 mm 1 mps 749 mmHg 52%
16:00 +27°C° 0 mm 1 mps 749 mmHg 56%
17:00 +27°C° 0 mm 1 mps 749 mmHg 60%
18:00 +25°C° 0 mm 1 mps 749 mmHg 67%
19:00 +22°C° 0 mm 1 mps 749 mmHg 74%
20:00 +20°C° 0 mm 1 mps 748 mmHg 81%
21:00 +20°C° 0 mm 1 mps 748 mmHg 83%
22:00 +17°C° 0 mm 0 mps 748 mmHg 86%
23:00 +16°C° 0 mm 0 mps 748 mmHg 89%
Show more